Phoenix Deer Valley, AZ

12:07 PM MST on November 18, 2019 (GMT -0700)
Phoenix-Deer Valley Municipal

Weather History for KDVT - September, 2019

Change the Weather History Date:

Wednesday, September 11, 2019

  Actual Average Record
Temperature  
Mean Temperature 83 °F -  
Max Temperature 91 °F 96 °F 105 °F (2001)
Min Temperature 75 °F 75 °F 68 °F (2010)
Cooling Degree Days 18    
Growing Degree Days 33 (Base 50)    
Moisture  
Dew Point 54 °F    
Average Humidity 36    
Maximum Humidity 52    
Minimum Humidity 27    
Precipitation  
Precipitation 0.00 in - - ()
Sea Level Pressure  
Sea Level Pressure 29.88 in    
Wind  
Wind Speed 6 mph ()    
Max Wind Speed 12 mph    
Max Gust Speed 18 mph    
Visibility 10.0 miles    
Events      
Averages and records for this station are not official NWS values.
T = Trace of Precipitation, MM = Missing Value Source: Averaged Metar Reports

Daily Weather History Graph

Daily Weather History Graph

Search for Another Location

Airport or City:

Astronomy

Sep. 11, 2019 Rise Set
Actual Time 6:08 AM MST 6:40 PM MST
Civil Twilight 5:43 AM MST 7:05 PM MST
Nautical Twilight 5:14 AM MST 7:34 PM MST
Astronomical Twilight 4:44 AM MST 8:04 PM MST
Moon 5:46 PM MST (9/11) 3:45 AM MST (9/11)
Length of Visible Light 13h 21m
Length of Day
12h 31m
Waxing Gibbous, 95% of the Moon is Illuminated
Sep 11
Waxing Gibbous
Sep 13
Full
Sep 21
Last Quarter
Sep 28
New
Oct 5
First Quarter

Hourly Weather History & Observations

Time (MST) Temp. Heat Index Dew Point Humidity Pressure Visibility Wind Dir Wind Speed Gust Speed Precip Events Conditions
12:53 AM 81.0 °F 80.8 °F 55.9 °F 42% 29.80 in 10.0 mi WSW 11.5 mph - N/A   Clear
1:53 AM 80.1 °F 79.9 °F 53.1 °F 39% 29.82 in 10.0 mi West 10.4 mph - N/A   Clear
2:53 AM 79.0 °F - 52.0 °F 39% 29.83 in 10.0 mi West 5.8 mph - N/A   Clear
3:53 AM 78.1 °F - 50.0 °F 37% 29.84 in 10.0 mi North 4.6 mph - N/A   Clear
4:53 AM 77.0 °F - 48.9 °F 37% 29.86 in 10.0 mi North 5.8 mph - N/A   Clear
5:53 AM 75.0 °F - 48.9 °F 40% 29.87 in 10.0 mi North 4.6 mph - N/A   Clear
6:53 AM 78.1 °F - 53.1 °F 42% 29.89 in 10.0 mi NNE 4.6 mph - N/A   Clear
7:53 AM 81.0 °F 81.6 °F 60.1 °F 49% 29.91 in 10.0 mi North 5.8 mph - N/A   Clear
8:53 AM 82.0 °F 83.1 °F 63.0 °F 52% 29.92 in 10.0 mi East 4.6 mph - N/A   Clear
9:53 AM - - - N/A% 29.99 in - North - - N/A   Scattered Clouds
10:53 AM - - - N/A% 29.99 in - North - - N/A   Partly Cloudy
11:53 AM - - - N/A% 29.98 in - North - - N/A   Partly Cloudy
12:53 PM 88.0 °F 87.1 °F 59.0 °F 37% 29.89 in 10.0 mi Variable 3.5 mph - N/A   Partly Cloudy
1:53 PM 91.0 °F 89.7 °F 57.0 °F 32% 29.86 in 10.0 mi West 8.1 mph 18.4 mph N/A   Partly Cloudy
2:53 PM 90.0 °F 88.6 °F 57.0 °F 33% 29.84 in 10.0 mi West 10.4 mph - N/A   Clear
3:53 PM 91.0 °F 89.2 °F 55.9 °F 30% 29.82 in 10.0 mi West 9.2 mph - N/A   Clear
4:53 PM 91.9 °F 89.5 °F 54.0 °F 27% 29.81 in 10.0 mi WSW 6.9 mph - N/A   Clear
5:53 PM 91.0 °F 88.7 °F 54.0 °F 28% 29.81 in 10.0 mi Variable 4.6 mph - N/A   Clear
6:53 PM 90.0 °F - 52.0 °F 27% 29.81 in 10.0 mi WSW 5.8 mph - N/A   Clear
7:53 PM 89.1 °F 86.7 °F 53.1 °F 29% 29.83 in 10.0 mi Calm Calm - N/A   Clear
8:53 PM 88.0 °F 85.7 °F 53.1 °F 30% 29.84 in 10.0 mi Calm Calm - N/A   Clear
9:53 PM 82.9 °F - 52.0 °F 34% 29.93 in 10.0 mi Calm Calm - N/A   Clear
10:53 PM 82.9 °F 81.8 °F 53.1 °F 36% 29.94 in 10.0 mi NE 6.9 mph - N/A   Clear
11:53 PM 82.0 °F 81.3 °F 54.0 °F 38% 29.95 in 10.0 mi NE 5.8 mph - N/A   Clear